Meridian, MS

10:08 AM CST on December 14, 2019 (GMT -0600)
Key

Weather History for KMEI - October, 2019

Change the Weather History Date:

Monday, October 28, 2019

  Actual Average Record
Temperature  
Mean Temperature 58 °F 60 °F  
Max Temperature 63 °F 74 °F 89 °F (2016)
Min Temperature 52 °F 47 °F 27 °F (1957)
Degree Days  
Heating Degree Days 8 6  
Month to date heating degree days 56 96  
Since 1 July heating degree days 56 103  
Cooling Degree Days 0 1  
Month to date cooling degree days 205 87  
Year to date cooling degree days 2837 2010  
Growing Degree Days 8 (Base 50)    
Moisture  
Dew Point 53 °F    
Average Humidity 80    
Maximum Humidity 93    
Minimum Humidity 72    
Precipitation  
Precipitation 0.00 in 0.13 in 3.79 in (2002)
Month to date precipitation 10.08 3.38  
Year to date precipitation 53.26 45.77  
Sea Level Pressure  
Sea Level Pressure 30.08 in    
Wind  
Wind Speed 3 mph ()    
Max Wind Speed 5 mph    
Max Gust Speed -    
Visibility 10.0 miles    
Events      
T = Trace of Precipitation, MM = Missing Value Source: Averaged Metar Reports

Daily Weather History Graph

Daily Weather History Graph

Search for Another Location

Airport or City:

Astronomy

Oct. 28, 2019 Rise Set
Actual Time 7:08 AM CDT 6:08 PM CDT
Civil Twilight 6:43 AM CDT 6:33 PM CDT
Nautical Twilight 6:14 AM CDT 7:02 PM CDT
Astronomical Twilight 5:45 AM CDT 7:31 PM CDT
Moon 7:31 AM CDT (10/28) 6:54 PM CDT (10/28)
Length of Visible Light 11h 50m
Length of Day
10h 59m
New Moon, 0% of the Moon is Illuminated
Oct 28
New Moon
Nov 4
First Quarter
Nov 12
Full
Nov 19
Last Quarter
Nov 26
New

Hourly Weather History & Observations

Time (CDT) Temp. Dew Point Humidity Pressure Visibility Wind Dir Wind Speed Gust Speed Precip Events Conditions
1:58 AM 59.0 °F 52.0 °F 78% 30.07 in 10.0 mi ESE 3.5 mph - N/A   Overcast
2:58 AM 59.0 °F 53.1 °F 81% 30.06 in 10.0 mi North 4.6 mph - N/A   Overcast
3:58 AM 57.9 °F 51.1 °F 78% 30.06 in 10.0 mi Calm Calm - N/A   Overcast
4:58 AM 59.0 °F 52.0 °F 78% 30.06 in 10.0 mi Calm Calm - N/A   Overcast
5:58 AM 57.9 °F 53.1 °F 84% 30.07 in 10.0 mi West 3.5 mph - N/A   Overcast
6:58 AM 57.9 °F 53.1 °F 84% 30.09 in 10.0 mi SSE 3.5 mph - N/A   Overcast
7:58 AM 57.9 °F 52.0 °F 81% 30.11 in 10.0 mi SW 3.5 mph - N/A   Overcast
8:58 AM 57.9 °F 52.0 °F 81% 30.12 in 10.0 mi WSW 4.6 mph - N/A   Overcast
10:17 AM 59.0 °F 52.0 °F 78% 30.13 in 10.0 mi Variable 3.5 mph - N/A   Overcast
10:40 AM 59.0 °F 52.0 °F 78% 30.13 in 10.0 mi SSW 3.5 mph - N/A   Overcast
10:58 AM 60.1 °F 52.0 °F 75% 30.12 in 10.0 mi South 3.5 mph - N/A   Overcast
11:58 AM 60.1 °F 53.1 °F 78% 30.11 in 10.0 mi West 4.6 mph - N/A   Overcast
12:43 PM 61.0 °F 53.1 °F 75% 30.10 in 10.0 mi Variable 3.5 mph - N/A   Overcast
12:58 PM 61.0 °F 53.1 °F 75% 30.08 in 10.0 mi Calm Calm - N/A   Overcast
1:58 PM 62.1 °F 53.1 °F 72% 30.05 in 10.0 mi SSW 3.5 mph - N/A   Overcast
2:58 PM 63.0 °F 54.0 °F 72% 30.05 in 10.0 mi Variable 4.6 mph - N/A   Overcast
3:58 PM 63.0 °F 54.0 °F 72% 30.05 in 10.0 mi SSW 4.6 mph - N/A   Overcast
4:58 PM 63.0 °F 54.0 °F 72% 30.06 in 10.0 mi SSW 4.6 mph - N/A   Overcast
5:58 PM 62.1 °F 54.0 °F 75% 30.06 in 10.0 mi SW 3.5 mph - N/A   Overcast
6:32 PM 59.0 °F 53.1 °F 81% 30.07 in 10.0 mi WNW 4.6 mph - N/A   Scattered Clouds
6:58 PM 57.9 °F 54.0 °F 87% 30.06 in 10.0 mi West 3.5 mph - N/A   Clear
7:58 PM 57.0 °F 53.1 °F 87% 30.06 in 10.0 mi Calm Calm - N/A   Clear
8:58 PM 55.0 °F 52.0 °F 89% 30.06 in 10.0 mi Calm Calm - N/A   Clear
9:58 PM 54.0 °F 51.1 °F 90% 30.08 in 10.0 mi Calm Calm - N/A   Clear
10:58 PM 54.0 °F 51.1 °F 90% 30.09 in 10.0 mi Calm Calm - N/A   Clear
11:58 PM 54.0 °F 51.1 °F 90% 30.08 in 10.0 mi Calm Calm - N/A   Clear